Time,TemperatureF,DewpointF,PressureIn,WindDirection,WindDirectionDegrees,WindSpeedMPH,WindSpeedGustMPH,Humidity,HourlyPrecipIn,Conditions,Clouds,dailyrainin,SoftwareType,DateUTC
2013-03-23 00:02:00,59.1,20.2,30.08,NW,309,8.0,8.0,22,0.00,,,0.00,Wunderground v.1.15,2013-03-23 07:02:00,
2013-03-23 00:08:00,59.0,20.2,30.08,WNW,298,9.0,9.0,22,0.00,,,0.00,Wunderground v.1.15,2013-03-23 07:08:00,
2013-03-23 00:14:00,58.8,20.0,30.08,NNW,341,3.0,5.0,22,0.00,,,0.00,Wunderground v.1.15,2013-03-23 07:14:00,
2013-03-23 00:19:00,58.6,19.8,30.09,NW,321,4.0,8.0,22,0.00,,,0.00,Wunderground v.1.15,2013-03-23 07:19:00,
2013-03-23 00:25:00,58.5,20.8,30.08,NW,306,5.0,10.0,23,0.00,,,0.00,Wunderground v.1.15,2013-03-23 07:25:00,
2013-03-23 00:31:00,58.3,20.6,30.08,NW,325,5.0,5.0,23,0.00,,,0.00,Wunderground v.1.15,2013-03-23 07:31:00,
2013-03-23 00:37:00,58.3,20.6,30.08,NW,319,7.0,12.0,23,0.00,,,0.00,Wunderground v.1.15,2013-03-23 07:37:00,
2013-03-23 00:42:00,58.3,20.6,30.08,NW,320,0.0,5.0,23,0.00,,,0.00,Wunderground v.1.15,2013-03-23 07:42:00,
2013-03-23 00:47:00,58.4,20.7,30.08,NNW,328,5.0,12.0,23,0.00,,,0.00,Wunderground v.1.15,2013-03-23 07:47:00,
2013-03-23 00:53:00,58.4,20.7,30.09,NW,325,4.0,6.0,23,0.00,,,0.00,Wunderground v.1.15,2013-03-23 07:53:00,
2013-03-23 00:59:00,58.2,20.5,30.09,NW,315,3.0,7.0,23,0.00,,,0.00,Wunderground v.1.15,2013-03-23 07:59:00,
2013-03-23 01:05:00,58.1,20.4,30.09,NW,321,5.0,7.0,23,0.00,,,0.00,Wunderground v.1.15,2013-03-23 08:05:00,
2013-03-23 01:10:00,58.1,21.4,30.08,NW,314,5.0,5.0,24,0.00,,,0.00,Wunderground v.1.15,2013-03-23 08:10:00,
2013-03-23 01:17:00,57.9,21.3,30.09,NNW,339,5.0,7.0,24,0.00,,,0.00,Wunderground v.1.15,2013-03-23 08:17:00,
2013-03-23 01:22:00,57.8,22.2,30.09,NW,325,2.0,6.0,25,0.00,,,0.00,Wunderground v.1.15,2013-03-23 08:22:00,
2013-03-23 01:28:00,57.6,22.0,30.09,NNW,332,3.0,6.0,25,0.00,,,0.00,Wunderground v.1.15,2013-03-23 08:28:00,
2013-03-23 01:34:00,57.5,21.9,30.09,NW,315,8.0,8.0,25,0.00,,,0.00,Wunderground v.1.15,2013-03-23 08:34:00,
2013-03-23 01:40:00,57.3,21.7,30.09,NW,323,8.0,8.0,25,0.00,,,0.00,Wunderground v.1.15,2013-03-23 08:40:00,
2013-03-23 01:46:00,57.2,21.6,30.09,NNW,327,7.0,8.0,25,0.00,,,0.00,Wunderground v.1.15,2013-03-23 08:46:00,
2013-03-23 01:52:00,57.2,21.6,30.09,North,5,4.0,8.0,25,0.00,,,0.00,Wunderground v.1.15,2013-03-23 08:52:00,
2013-03-23 01:57:00,57.1,21.6,30.09,WNW,302,7.0,8.0,25,0.00,,,0.00,Wunderground v.1.15,2013-03-23 08:57:00,
2013-03-23 02:02:00,57.1,21.6,30.08,NW,320,9.0,9.0,25,0.00,,,0.00,Wunderground v.1.15,2013-03-23 09:02:00,
2013-03-23 02:07:00,56.9,21.4,30.09,NW,322,3.0,9.0,25,0.00,,,0.00,Wunderground v.1.15,2013-03-23 09:07:00,
2013-03-23 02:12:00,56.7,21.2,30.09,NNW,335,5.0,8.0,25,0.00,,,0.00,Wunderground v.1.15,2013-03-23 09:12:00,
2013-03-23 02:17:00,56.7,21.2,30.08,NW,310,11.0,11.0,25,0.00,,,0.00,Wunderground v.1.15,2013-03-23 09:17:00,
2013-03-23 02:22:00,56.6,21.1,30.08,NW,325,6.0,8.0,25,0.00,,,0.00,Wunderground v.1.15,2013-03-23 09:22:00,
2013-03-23 02:27:00,56.6,21.1,30.09,NNW,335,6.0,10.0,25,0.00,,,0.00,Wunderground v.1.15,2013-03-23 09:27:00,
2013-03-23 02:32:00,56.5,21.1,30.08,North,355,8.0,11.0,25,0.00,,,0.00,Wunderground v.1.15,2013-03-23 09:32:00,
2013-03-23 02:37:00,56.5,21.1,30.09,NNW,338,3.0,11.0,25,0.00,,,0.00,Wunderground v.1.15,2013-03-23 09:37:00,
2013-03-23 02:42:00,56.3,21.8,30.09,NNW,344,5.0,7.0,26,0.00,,,0.00,Wunderground v.1.15,2013-03-23 09:42:00,
2013-03-23 02:47:00,56.2,21.7,30.09,NNE,12,5.0,12.0,26,0.00,,,0.00,Wunderground v.1.15,2013-03-23 09:47:00,
2013-03-23 02:52:00,56.0,21.6,30.09,WNW,303,2.0,5.0,26,0.00,,,0.00,Wunderground v.1.15,2013-03-23 09:52:00,
2013-03-23 02:57:00,55.7,21.3,30.09,NNW,342,3.0,9.0,26,0.00,,,0.00,Wunderground v.1.15,2013-03-23 09:57:00,
2013-03-23 03:02:00,55.5,22.0,30.09,NW,321,3.0,10.0,27,0.00,,,0.00,Wunderground v.1.15,2013-03-23 10:02:00,
2013-03-23 03:07:00,55.4,21.0,30.09,NW,326,5.0,10.0,26,0.00,,,0.00,Wunderground v.1.15,2013-03-23 10:07:00,
2013-03-23 03:12:00,55.3,21.8,30.09,NNW,343,10.0,10.0,27,0.00,,,0.00,Wunderground v.1.15,2013-03-23 10:12:00,
2013-03-23 03:17:00,55.1,21.7,30.09,North,355,3.0,10.0,27,0.00,,,0.00,Wunderground v.1.15,2013-03-23 10:17:00,
2013-03-23 03:22:00,54.9,21.5,30.09,North,355,4.0,10.0,27,0.00,,,0.00,Wunderground v.1.15,2013-03-23 10:22:00,
2013-03-23 03:27:00,54.8,21.4,30.09,NNW,347,4.0,10.0,27,0.00,,,0.00,Wunderground v.1.15,2013-03-23 10:27:00,
2013-03-23 03:32:00,54.6,21.2,30.09,NNW,342,6.0,6.0,27,0.00,,,0.00,Wunderground v.1.15,2013-03-23 10:32:00,
2013-03-23 03:37:00,54.4,21.1,30.09,NNW,336,5.0,9.0,27,0.00,,,0.00,Wunderground v.1.15,2013-03-23 10:37:00,
2013-03-23 03:43:00,54.3,21.0,30.09,NNW,340,3.0,9.0,27,0.00,,,0.00,Wunderground v.1.15,2013-03-23 10:43:00,
2013-03-23 03:47:00,54.2,21.8,30.08,NNW,347,2.0,9.0,28,0.00,,,0.00,Wunderground v.1.15,2013-03-23 10:47:00,
2013-03-23 03:52:00,54.1,21.7,30.08,North,355,3.0,6.0,28,0.00,,,0.00,Wunderground v.1.15,2013-03-23 10:52:00,
2013-03-23 03:58:00,53.8,21.4,30.08,North,360,1.0,7.0,28,0.00,,,0.00,Wunderground v.1.15,2013-03-23 10:58:00,
2013-03-23 04:03:00,53.5,22.0,30.08,NNW,347,3.0,6.0,29,0.00,,,0.00,Wunderground v.1.15,2013-03-23 11:03:00,
2013-03-23 04:08:00,53.4,21.9,30.08,NNW,346,2.0,6.0,29,0.00,,,0.00,Wunderground v.1.15,2013-03-23 11:08:00,
2013-03-23 04:13:00,53.0,21.6,30.08,NNW,346,1.0,4.0,29,0.00,,,0.00,Wunderground v.1.15,2013-03-23 11:13:00,
2013-03-23 04:18:00,52.6,22.0,30.08,NNW,346,1.0,4.0,30,0.00,,,0.00,Wunderground v.1.15,2013-03-23 11:18:00,
2013-03-23 04:23:00,52.4,21.8,30.08,NNW,346,2.0,4.0,30,0.00,,,0.00,Wunderground v.1.15,2013-03-23 11:23:00,
2013-03-23 04:28:00,52.1,22.3,30.08,NNW,346,1.0,4.0,31,0.00,,,0.00,Wunderground v.1.15,2013-03-23 11:28:00,
2013-03-23 04:33:00,51.9,22.9,30.08,NNW,346,0.0,2.0,32,0.00,,,0.00,Wunderground v.1.15,2013-03-23 11:33:00,
2013-03-23 04:38:00,51.7,23.5,30.09,NNW,346,0.0,2.0,33,0.00,,,0.00,Wunderground v.1.15,2013-03-23 11:38:00,
2013-03-23 04:43:00,51.4,22.5,30.09,NNW,346,2.0,3.0,32,0.00,,,0.00,Wunderground v.1.15,2013-03-23 11:43:00,
2013-03-23 04:48:00,51.1,22.2,30.09,NNW,346,0.0,4.0,32,0.00,,,0.00,Wunderground v.1.15,2013-03-23 11:48:00,
2013-03-23 04:53:00,51.0,22.1,30.09,NNW,344,1.0,6.0,32,0.00,,,0.00,Wunderground v.1.15,2013-03-23 11:53:00,
2013-03-23 04:58:00,51.2,21.6,30.09,NNW,340,3.0,7.0,31,0.00,,,0.00,Wunderground v.1.15,2013-03-23 11:58:00,
2013-03-23 05:03:00,51.5,21.0,30.09,NNW,342,5.0,8.0,30,0.00,,,0.00,Wunderground v.1.15,2013-03-23 12:03:00,
2013-03-23 05:08:00,51.8,20.5,30.09,North,5,4.0,8.0,29,0.00,,,0.00,Wunderground v.1.15,2013-03-23 12:08:00,
2013-03-23 05:13:00,51.8,20.5,30.09,North,355,3.0,5.0,29,0.00,,,0.00,Wunderground v.1.15,2013-03-23 12:13:00,
2013-03-23 05:18:00,51.8,20.5,30.09,NNW,344,4.0,7.0,29,0.00,,,0.00,Wunderground v.1.15,2013-03-23 12:18:00,
2013-03-23 05:23:00,51.7,21.2,30.09,North,360,4.0,5.0,30,0.00,,,0.00,Wunderground v.1.15,2013-03-23 12:23:00,
2013-03-23 05:28:00,51.4,21.7,30.10,NNW,346,6.0,8.0,31,0.00,,,0.00,Wunderground v.1.15,2013-03-23 12:28:00,
2013-03-23 05:33:00,51.0,21.4,30.10,North,360,3.0,8.0,31,0.00,,,0.00,Wunderground v.1.15,2013-03-23 12:33:00,
2013-03-23 05:38:00,50.6,21.8,30.10,North,360,2.0,10.0,32,0.00,,,0.00,Wunderground v.1.15,2013-03-23 12:38:00,
2013-03-23 05:43:00,50.3,22.3,30.10,NW,315,2.0,10.0,33,0.00,,,0.00,Wunderground v.1.15,2013-03-23 12:43:00,
2013-03-23 05:48:00,50.0,22.0,30.10,NNW,330,3.0,10.0,33,0.00,,,0.00,Wunderground v.1.15,2013-03-23 12:48:00,
2013-03-23 05:53:00,49.8,22.5,30.10,North,350,5.0,7.0,34,0.00,,,0.00,Wunderground v.1.15,2013-03-23 12:53:00,
2013-03-23 05:58:00,49.6,22.3,30.10,NNW,346,6.0,8.0,34,0.00,,,0.00,Wunderground v.1.15,2013-03-23 12:58:00,
2013-03-23 06:03:00,49.6,22.3,30.09,North,351,8.0,10.0,34,0.00,,,0.00,Wunderground v.1.15,2013-03-23 13:03:00,
2013-03-23 06:08:00,49.7,21.7,30.10,NNW,329,5.0,10.0,33,0.00,,,0.00,Wunderground v.1.15,2013-03-23 13:08:00,
2013-03-23 06:13:00,49.9,21.9,30.10,North,355,3.0,10.0,33,0.00,,,0.00,Wunderground v.1.15,2013-03-23 13:13:00,
2013-03-23 06:18:00,50.0,22.0,30.10,North,351,2.0,10.0,33,0.00,,,0.00,Wunderground v.1.15,2013-03-23 13:18:00,
2013-03-23 06:23:00,50.0,22.0,30.11,North,349,5.0,8.0,33,0.00,,,0.00,Wunderground v.1.15,2013-03-23 13:23:00,
2013-03-23 06:28:00,50.0,22.0,30.11,NNE,12,3.0,8.0,33,0.00,,,0.00,Wunderground v.1.15,2013-03-23 13:28:00,
2013-03-23 06:33:00,50.0,22.0,30.11,North,355,4.0,5.0,33,0.00,,,0.00,Wunderground v.1.15,2013-03-23 13:33:00,
2013-03-23 06:38:00,49.9,22.6,30.11,North,360,4.0,8.0,34,0.00,,,0.00,Wunderground v.1.15,2013-03-23 13:38:00,
2013-03-23 06:43:00,49.7,22.4,30.11,NNW,346,7.0,10.0,34,0.00,,,0.00,Wunderground v.1.15,2013-03-23 13:43:00,
2013-03-23 06:48:00,49.4,22.9,30.11,NNW,336,4.0,10.0,35,0.00,,,0.00,Wunderground v.1.15,2013-03-23 13:48:00,
2013-03-23 06:53:00,49.2,22.0,30.11,NNW,338,5.0,9.0,34,0.00,,,0.00,Wunderground v.1.15,2013-03-23 13:53:00,
2013-03-23 06:58:00,49.2,22.7,30.12,North,355,5.0,9.0,35,0.00,,,0.00,Wunderground v.1.15,2013-03-23 13:58:00,
2013-03-23 07:03:00,49.1,22.6,30.11,NNW,336,4.0,6.0,35,0.00,,,0.00,Wunderground v.1.15,2013-03-23 14:03:00,
2013-03-23 07:08:00,49.0,22.5,30.11,NNW,340,1.0,6.0,35,0.00,,,0.00,Wunderground v.1.15,2013-03-23 14:08:00,
2013-03-23 07:13:00,48.9,22.4,30.12,NNW,340,1.0,4.0,35,0.00,,,0.00,Wunderground v.1.15,2013-03-23 14:13:00,
2013-03-23 07:18:00,48.7,22.9,30.12,NNW,340,1.0,4.0,36,0.00,,,0.00,Wunderground v.1.15,2013-03-23 14:18:00,
2013-03-23 07:23:00,48.6,22.8,30.12,NNW,340,2.0,3.0,36,0.00,,,0.00,Wunderground v.1.15,2013-03-23 14:23:00,
2013-03-23 07:28:00,48.4,22.6,30.13,NNW,340,0.0,4.0,36,0.00,,,0.00,Wunderground v.1.15,2013-03-23 14:28:00,
2013-03-23 07:33:00,48.2,23.1,30.13,NNW,340,0.0,4.0,37,0.00,,,0.00,Wunderground v.1.15,2013-03-23 14:33:00,
2013-03-23 07:39:00,48.2,22.5,30.13,NNW,340,0.0,4.0,36,0.00,,,0.00,Wunderground v.1.15,2013-03-23 14:39:00,
2013-03-23 07:44:00,48.2,23.1,30.14,NNW,340,1.0,3.0,37,0.00,,,0.00,Wunderground v.1.15,2013-03-23 14:44:00,
2013-03-23 07:49:00,48.2,23.1,30.14,NNW,340,2.0,3.0,37,0.00,,,0.00,Wunderground v.1.15,2013-03-23 14:49:00,
2013-03-23 07:54:00,48.3,23.2,30.14,NNW,340,2.0,3.0,37,0.00,,,0.00,Wunderground v.1.15,2013-03-23 14:54:00,
2013-03-23 07:59:00,48.5,24.0,30.14,NNW,340,2.0,5.0,38,0.00,,,0.00,Wunderground v.1.15,2013-03-23 14:59:00,
2013-03-23 08:04:00,48.7,23.6,30.15,NNW,340,1.0,2.0,37,0.00,,,0.00,Wunderground v.1.15,2013-03-23 15:04:00,
2013-03-23 08:09:00,49.1,23.9,30.15,NNW,340,0.0,4.0,37,0.00,,,0.00,Wunderground v.1.15,2013-03-23 15:09:00,
2013-03-23 08:14:00,49.4,24.2,30.15,NNW,340,0.0,4.0,37,0.00,,,0.00,Wunderground v.1.15,2013-03-23 15:14:00,
2013-03-23 08:19:00,49.7,23.8,30.15,North,355,1.0,6.0,36,0.00,,,0.00,Wunderground v.1.15,2013-03-23 15:19:00,
2013-03-23 08:24:00,50.0,24.1,30.15,NNW,334,4.0,6.0,36,0.00,,,0.00,Wunderground v.1.15,2013-03-23 15:24:00,
2013-03-23 08:29:00,50.3,24.3,30.15,NW,318,3.0,7.0,36,0.00,,,0.00,Wunderground v.1.15,2013-03-23 15:29:00,
2013-03-23 08:34:00,50.5,24.5,30.15,NW,315,2.0,6.0,36,0.00,,,0.00,Wunderground v.1.15,2013-03-23 15:34:00,
2013-03-23 08:39:00,50.7,24.7,30.16,NW,315,2.0,6.0,36,0.00,,,0.00,Wunderground v.1.15,2013-03-23 15:39:00,
2013-03-23 08:44:00,51.0,25.0,30.15,NW,315,0.0,4.0,36,0.00,,,0.00,Wunderground v.1.15,2013-03-23 15:44:00,
2013-03-23 08:49:00,51.3,25.2,30.15,NW,315,0.0,4.0,36,0.00,,,0.00,Wunderground v.1.15,2013-03-23 15:49:00,
2013-03-23 08:54:00,51.9,25.1,30.16,NW,315,1.0,2.0,35,0.00,,,0.00,Wunderground v.1.15,2013-03-23 15:54:00,
2013-03-23 08:59:00,52.5,24.9,30.16,NW,315,2.0,3.0,34,0.00,,,0.00,Wunderground v.1.15,2013-03-23 15:59:00,
2013-03-23 09:04:00,52.8,24.5,30.15,NW,315,1.0,4.0,33,0.00,,,0.00,Wunderground v.1.15,2013-03-23 16:04:00,
2013-03-23 09:09:00,53.1,24.7,30.16,NW,315,4.0,4.0,33,0.00,,,0.00,Wunderground v.1.15,2013-03-23 16:09:00,
2013-03-23 09:14:00,53.5,25.1,30.15,NW,315,2.0,4.0,33,0.00,,,0.00,Wunderground v.1.15,2013-03-23 16:14:00,
2013-03-23 09:19:00,53.8,25.3,30.15,West,281,2.0,5.0,33,0.00,,,0.00,Wunderground v.1.15,2013-03-23 16:19:00,
2013-03-23 09:24:00,54.2,27.1,30.15,West,276,1.0,4.0,35,0.00,,,0.00,Wunderground v.1.15,2013-03-23 16:24:00,
2013-03-23 09:29:00,54.7,28.2,30.15,SSW,196,2.0,5.0,36,0.00,,,0.00,Wunderground v.1.15,2013-03-23 16:29:00,
2013-03-23 09:34:00,54.9,27.7,30.15,SSW,199,2.0,5.0,35,0.00,,,0.00,Wunderground v.1.15,2013-03-23 16:34:00,
2013-03-23 09:39:00,55.2,28.0,30.15,SSW,199,2.0,5.0,35,0.00,,,0.00,Wunderground v.1.15,2013-03-23 16:39:00,
2013-03-23 09:44:00,55.7,28.4,30.15,SSW,199,0.0,4.0,35,0.00,,,0.00,Wunderground v.1.15,2013-03-23 16:44:00,
2013-03-23 09:49:00,56.0,28.7,30.16,SSW,199,2.0,4.0,35,0.00,,,0.00,Wunderground v.1.15,2013-03-23 16:49:00,
2013-03-23 09:54:00,56.3,27.5,30.15,NW,319,3.0,5.0,33,0.00,,,0.00,Wunderground v.1.15,2013-03-23 16:54:00,
2013-03-23 09:59:00,56.7,26.4,30.15,North,11,0.0,7.0,31,0.00,,,0.00,Wunderground v.1.15,2013-03-23 16:59:00,
2013-03-23 10:04:00,57.0,26.6,30.16,North,355,5.0,9.0,31,0.00,,,0.00,Wunderground v.1.15,2013-03-23 17:04:00,
2013-03-23 10:09:00,57.3,25.3,30.16,North,355,2.0,9.0,29,0.00,,,0.00,Wunderground v.1.15,2013-03-23 17:09:00,
2013-03-23 10:14:00,57.5,26.3,30.15,North,11,1.0,6.0,30,0.00,,,0.00,Wunderground v.1.15,2013-03-23 17:14:00,
2013-03-23 10:19:00,57.7,25.6,30.15,NNE,14,4.0,10.0,29,0.00,,,0.00,Wunderground v.1.15,2013-03-23 17:19:00,
2013-03-23 10:24:00,57.8,26.5,30.16,NNW,331,5.0,6.0,30,0.00,,,0.00,Wunderground v.1.15,2013-03-23 17:24:00,
2013-03-23 10:29:00,58.1,26.0,30.15,NNW,342,7.0,7.0,29,0.00,,,0.00,Wunderground v.1.15,2013-03-23 17:29:00,
2013-03-23 10:34:00,58.3,26.1,30.15,NW,312,1.0,9.0,29,0.00,,,0.00,Wunderground v.1.15,2013-03-23 17:34:00,
2013-03-23 10:40:00,58.8,25.7,30.15,North,5,6.0,6.0,28,0.00,,,0.00,Wunderground v.1.15,2013-03-23 17:40:00,
2013-03-23 10:45:00,59.2,26.1,30.15,North,5,7.0,9.0,28,0.00,,,0.00,Wunderground v.1.15,2013-03-23 17:45:00,
2013-03-23 10:50:00,59.7,24.7,30.15,NNW,344,7.0,7.0,26,0.00,,,0.00,Wunderground v.1.15,2013-03-23 17:50:00,
2013-03-23 10:55:00,59.9,24.9,30.15,NNW,345,3.0,11.0,26,0.00,,,0.00,Wunderground v.1.15,2013-03-23 17:55:00,
2013-03-23 11:00:00,60.3,24.3,30.15,North,360,3.0,6.0,25,0.00,,,0.00,Wunderground v.1.15,2013-03-23 18:00:00,
2013-03-23 11:05:00,60.5,24.5,30.15,North,9,5.0,11.0,25,0.00,,,0.00,Wunderground v.1.15,2013-03-23 18:05:00,
2013-03-23 11:10:00,60.7,23.7,30.15,NNW,348,6.0,8.0,24,0.00,,,0.00,Wunderground v.1.15,2013-03-23 18:10:00,
2013-03-23 11:15:00,61.2,24.1,30.15,NW,323,6.0,8.0,24,0.00,,,0.00,Wunderground v.1.15,2013-03-23 18:15:00,
2013-03-23 11:20:00,61.2,23.1,30.15,NE,34,3.0,6.0,23,0.00,,,0.00,Wunderground v.1.15,2013-03-23 18:20:00,
2013-03-23 11:25:00,61.3,24.2,30.15,North,10,3.0,9.0,24,0.00,,,0.00,Wunderground v.1.15,2013-03-23 18:25:00,
2013-03-23 11:30:00,61.8,24.6,30.15,North,360,6.0,6.0,24,0.00,,,0.00,Wunderground v.1.15,2013-03-23 18:30:00,
2013-03-23 11:35:00,62.0,22.7,30.15,NNE,26,7.0,11.0,22,0.00,,,0.00,Wunderground v.1.15,2013-03-23 18:35:00,
2013-03-23 11:40:00,62.3,24.0,30.14,NNE,13,4.0,6.0,23,0.00,,,0.00,Wunderground v.1.15,2013-03-23 18:40:00,
2013-03-23 11:45:00,62.0,22.7,30.14,NW,321,5.0,9.0,22,0.00,,,0.00,Wunderground v.1.15,2013-03-23 18:45:00,
2013-03-23 11:50:00,62.2,23.9,30.14,NNW,346,2.0,5.0,23,0.00,,,0.00,Wunderground v.1.15,2013-03-23 18:50:00,
2013-03-23 11:55:00,62.4,23.0,30.14,North,350,4.0,7.0,22,0.00,,,0.00,Wunderground v.1.15,2013-03-23 18:55:00,
2013-03-23 12:00:00,62.9,24.5,30.14,NNW,344,4.0,5.0,23,0.00,,,0.00,Wunderground v.1.15,2013-03-23 19:00:00,
2013-03-23 12:05:00,62.8,24.4,30.13,NW,325,6.0,6.0,23,0.00,,,0.00,Wunderground v.1.15,2013-03-23 19:05:00,
2013-03-23 12:10:00,63.0,25.6,30.13,NW,313,6.0,8.0,24,0.00,,,0.00,Wunderground v.1.15,2013-03-23 19:10:00,
2013-03-23 12:15:00,62.9,25.5,30.13,NNE,29,3.0,8.0,24,0.00,,,0.00,Wunderground v.1.15,2013-03-23 19:15:00,
2013-03-23 12:20:00,63.3,25.9,30.13,NW,312,3.0,4.0,24,0.00,,,0.00,Wunderground v.1.15,2013-03-23 19:20:00,
2013-03-23 12:25:00,64.0,27.4,30.12,NNW,346,3.0,6.0,25,0.00,,,0.00,Wunderground v.1.15,2013-03-23 19:25:00,
2013-03-23 12:30:00,63.9,27.4,30.12,North,355,4.0,4.0,25,0.00,,,0.00,Wunderground v.1.15,2013-03-23 19:30:00,
2013-03-23 12:35:00,64.5,27.9,30.12,North,355,3.0,5.0,25,0.00,,,0.00,Wunderground v.1.15,2013-03-23 19:35:00,
2013-03-23 12:40:00,64.8,26.1,30.12,NNW,346,4.0,5.0,23,0.00,,,0.00,Wunderground v.1.15,2013-03-23 19:40:00,
2013-03-23 12:45:00,64.8,26.1,30.12,NNE,13,2.0,7.0,23,0.00,,,0.00,Wunderground v.1.15,2013-03-23 19:45:00,
2013-03-23 12:50:00,65.4,26.6,30.12,WNW,299,2.0,3.0,23,0.00,,,0.00,Wunderground v.1.15,2013-03-23 19:50:00,
2013-03-23 12:55:00,65.6,24.6,30.12,NNW,343,1.0,7.0,21,0.00,,,0.00,Wunderground v.1.15,2013-03-23 19:55:00,
2013-03-23 13:00:00,65.4,23.2,30.11,North,5,2.0,4.0,20,0.00,,,0.00,Wunderground v.1.15,2013-03-23 20:00:00,
2013-03-23 13:06:00,65.3,24.3,30.11,NNW,346,2.0,6.0,21,0.00,,,0.00,Wunderground v.1.15,2013-03-23 20:06:00,
2013-03-23 13:11:00,65.6,24.6,30.11,NNE,16,7.0,7.0,21,0.00,,,0.00,Wunderground v.1.15,2013-03-23 20:11:00,
2013-03-23 13:16:00,66.3,26.3,30.11,NNE,28,5.0,7.0,22,0.00,,,0.00,Wunderground v.1.15,2013-03-23 20:16:00,
2013-03-23 13:22:00,66.4,25.2,30.10,NNW,344,3.0,6.0,21,0.00,,,0.00,Wunderground v.1.15,2013-03-23 20:22:00,
2013-03-23 13:27:00,65.9,24.8,30.10,NNW,338,3.0,7.0,21,0.00,,,0.00,Wunderground v.1.15,2013-03-23 20:27:00,
2013-03-23 13:32:00,66.1,25.0,30.10,North,355,3.0,4.0,21,0.00,,,0.00,Wunderground v.1.15,2013-03-23 20:32:00,
2013-03-23 13:37:00,66.7,25.5,30.10,NW,307,1.0,9.0,21,0.00,,,0.00,Wunderground v.1.15,2013-03-23 20:37:00,
2013-03-23 13:42:00,67.0,25.7,30.09,NNW,344,2.0,4.0,21,0.00,,,0.00,Wunderground v.1.15,2013-03-23 20:42:00,
2013-03-23 13:47:00,67.0,26.9,30.09,NNE,17,4.0,5.0,22,0.00,,,0.00,Wunderground v.1.15,2013-03-23 20:47:00,
2013-03-23 13:52:00,67.1,26.9,30.09,NNE,23,2.0,4.0,22,0.00,,,0.00,Wunderground v.1.15,2013-03-23 20:52:00,
2013-03-23 13:57:00,67.2,24.7,30.09,NNE,31,1.0,9.0,20,0.00,,,0.00,Wunderground v.1.15,2013-03-23 20:57:00,
2013-03-23 14:02:00,67.4,24.9,30.09,NW,319,3.0,4.0,20,0.00,,,0.00,Wunderground v.1.15,2013-03-23 21:02:00,
2013-03-23 14:07:00,67.7,23.9,30.09,NNE,20,4.0,7.0,19,0.00,,,0.00,Wunderground v.1.15,2013-03-23 21:07:00,
2013-03-23 14:12:00,67.7,23.9,30.08,WNW,298,5.0,6.0,19,0.00,,,0.00,Wunderground v.1.15,2013-03-23 21:12:00,
2013-03-23 14:17:00,67.8,25.2,30.08,North,355,6.0,6.0,20,0.00,,,0.00,Wunderground v.1.15,2013-03-23 21:17:00,
2013-03-23 14:22:00,67.9,24.1,30.08,NNE,22,4.0,6.0,19,0.00,,,0.00,Wunderground v.1.15,2013-03-23 21:22:00,
2013-03-23 14:27:00,67.9,24.1,30.08,East,96,6.0,6.0,19,0.00,,,0.00,Wunderground v.1.15,2013-03-23 21:27:00,
2013-03-23 14:32:00,68.6,23.4,30.08,East,93,2.0,3.0,18,0.00,,,0.00,Wunderground v.1.15,2013-03-23 21:32:00,
2013-03-23 14:37:00,68.8,26.1,30.08,NNW,341,6.0,8.0,20,0.00,,,0.00,Wunderground v.1.15,2013-03-23 21:37:00,
2013-03-23 14:42:00,68.9,24.9,30.08,WNW,292,1.0,4.0,19,0.00,,,0.00,Wunderground v.1.15,2013-03-23 21:42:00,
2013-03-23 14:47:00,68.8,23.5,30.08,WNW,297,2.0,5.0,18,0.00,,,0.00,Wunderground v.1.15,2013-03-23 21:47:00,
2013-03-23 14:52:00,69.0,23.7,30.07,WNW,286,0.0,3.0,18,0.00,,,0.00,Wunderground v.1.15,2013-03-23 21:52:00,
2013-03-23 14:57:00,70.0,25.8,30.07,WNW,286,4.0,4.0,19,0.00,,,0.00,Wunderground v.1.15,2013-03-23 21:57:00,
2013-03-23 15:02:00,69.9,25.7,30.07,WNW,291,1.0,4.0,19,0.00,,,0.00,Wunderground v.1.15,2013-03-23 22:02:00,
2013-03-23 15:08:00,69.1,23.8,30.06,North,355,2.0,5.0,18,0.00,,,0.00,Wunderground v.1.15,2013-03-23 22:08:00,
2013-03-23 15:13:00,69.7,22.9,30.06,NE,46,2.0,7.0,17,0.00,,,0.00,Wunderground v.1.15,2013-03-23 22:13:00,
2013-03-23 15:18:00,69.0,23.7,30.06,ENE,59,3.0,7.0,18,0.00,,,0.00,Wunderground v.1.15,2013-03-23 22:18:00,
2013-03-23 15:23:00,70.3,24.8,30.06,ESE,116,4.0,7.0,18,0.00,,,0.00,Wunderground v.1.15,2013-03-23 22:23:00,
2013-03-23 15:28:00,70.3,23.4,30.06,ESE,118,2.0,7.0,17,0.00,,,0.00,Wunderground v.1.15,2013-03-23 22:28:00,
2013-03-23 15:33:00,69.8,23.0,30.05,East,101,2.0,3.0,17,0.00,,,0.00,Wunderground v.1.15,2013-03-23 22:33:00,
2013-03-23 15:38:00,69.9,23.1,30.05,WSW,238,2.0,5.0,17,0.00,,,0.00,Wunderground v.1.15,2013-03-23 22:38:00,
2013-03-23 15:43:00,70.0,23.1,30.05,SW,229,2.0,4.0,17,0.00,,,0.00,Wunderground v.1.15,2013-03-23 22:43:00,
2013-03-23 15:48:00,70.0,23.1,30.05,South,180,1.0,4.0,17,0.00,,,0.00,Wunderground v.1.15,2013-03-23 22:48:00,
2013-03-23 15:53:00,69.5,24.1,30.05,South,180,7.0,7.0,18,0.00,,,0.00,Wunderground v.1.15,2013-03-23 22:53:00,
2013-03-23 15:58:00,70.2,27.2,30.05,SSE,167,6.0,10.0,20,0.00,,,0.00,Wunderground v.1.15,2013-03-23 22:58:00,
2013-03-23 16:03:00,70.3,27.3,30.05,South,178,2.0,7.0,20,0.00,,,0.00,Wunderground v.1.15,2013-03-23 23:03:00,
2013-03-23 16:08:00,71.1,28.0,30.05,South,178,4.0,7.0,20,0.00,,,0.00,Wunderground v.1.15,2013-03-23 23:08:00,
2013-03-23 16:13:00,70.7,27.6,30.05,South,190,3.0,7.0,20,0.00,,,0.00,Wunderground v.1.15,2013-03-23 23:13:00,
2013-03-23 16:18:00,70.6,26.3,30.05,SSW,194,4.0,7.0,19,0.00,,,0.00,Wunderground v.1.15,2013-03-23 23:18:00,
2013-03-23 16:23:00,70.3,27.3,30.05,SSW,194,4.0,5.0,20,0.00,,,0.00,Wunderground v.1.15,2013-03-23 23:23:00,
2013-03-23 16:28:00,70.1,28.3,30.05,South,184,0.0,6.0,21,0.00,,,0.00,Wunderground v.1.15,2013-03-23 23:28:00,
2013-03-23 16:33:00,70.3,26.1,30.05,South,177,1.0,6.0,19,0.00,,,0.00,Wunderground v.1.15,2013-03-23 23:33:00,
2013-03-23 16:38:00,71.0,27.9,30.04,SSE,159,6.0,6.0,20,0.00,,,0.00,Wunderground v.1.15,2013-03-23 23:38:00,
2013-03-23 16:43:00,70.8,28.9,30.04,SSE,152,2.0,4.0,21,0.00,,,0.00,Wunderground v.1.15,2013-03-23 23:43:00,
2013-03-23 16:48:00,70.6,27.5,30.04,SSE,157,0.0,6.0,20,0.00,,,0.00,Wunderground v.1.15,2013-03-23 23:48:00,
2013-03-23 16:53:00,70.8,28.9,30.03,SSE,157,1.0,3.0,21,0.00,,,0.00,Wunderground v.1.15,2013-03-23 23:53:00,
2013-03-23 16:58:00,70.6,28.7,30.03,SSE,158,4.0,4.0,21,0.00,,,0.00,Wunderground v.1.15,2013-03-23 23:58:00,
2013-03-23 17:03:00,70.7,30.0,30.03,South,185,4.0,7.0,22,0.00,,,0.00,Wunderground v.1.15,2013-03-24 00:03:00,
2013-03-23 17:08:00,70.8,30.0,30.03,SSE,159,3.0,8.0,22,0.00,,,0.00,Wunderground v.1.15,2013-03-24 00:08:00,
2013-03-23 17:13:00,70.5,30.9,30.03,SSE,167,1.0,7.0,23,0.00,,,0.00,Wunderground v.1.15,2013-03-24 00:13:00,
2013-03-23 17:18:00,70.5,31.9,30.03,SSE,162,2.0,9.0,24,0.00,,,0.00,Wunderground v.1.15,2013-03-24 00:18:00,
2013-03-23 17:23:00,70.7,31.1,30.04,South,169,1.0,8.0,23,0.00,,,0.00,Wunderground v.1.15,2013-03-24 00:23:00,
2013-03-23 17:28:00,70.3,30.7,30.03,SSE,148,5.0,8.0,23,0.00,,,0.00,Wunderground v.1.15,2013-03-24 00:28:00,
2013-03-23 17:33:00,69.7,31.3,30.03,SE,141,5.0,8.0,24,0.00,,,0.00,Wunderground v.1.15,2013-03-24 00:33:00,
2013-03-23 17:38:00,70.1,33.6,30.03,South,177,4.0,8.0,26,0.00,,,0.00,Wunderground v.1.15,2013-03-24 00:38:00,
2013-03-23 17:43:00,70.2,33.7,30.03,SSW,197,2.0,7.0,26,0.00,,,0.00,Wunderground v.1.15,2013-03-24 00:43:00,
2013-03-23 17:48:00,70.0,34.5,30.03,SSW,202,4.0,7.0,27,0.00,,,0.00,Wunderground v.1.15,2013-03-24 00:48:00,
2013-03-23 17:53:00,69.8,34.3,30.03,SSW,201,2.0,7.0,27,0.00,,,0.00,Wunderground v.1.15,2013-03-24 00:53:00,
2013-03-23 17:58:00,69.8,35.2,30.03,South,184,6.0,7.0,28,0.00,,,0.00,Wunderground v.1.15,2013-03-24 00:58:00,
2013-03-23 18:03:00,69.5,34.9,30.03,South,169,6.0,8.0,28,0.00,,,0.00,Wunderground v.1.15,2013-03-24 01:03:00,
2013-03-23 18:08:00,69.3,34.8,30.03,South,186,4.0,8.0,28,0.00,,,0.00,Wunderground v.1.15,2013-03-24 01:08:00,
2013-03-23 18:13:00,69.2,34.7,30.03,South,188,7.0,9.0,28,0.00,,,0.00,Wunderground v.1.15,2013-03-24 01:13:00,
2013-03-23 18:18:00,69.1,35.5,30.03,SSW,197,4.0,9.0,29,0.00,,,0.00,Wunderground v.1.15,2013-03-24 01:18:00,
2013-03-23 18:23:00,69.1,36.3,30.03,SSW,196,3.0,5.0,30,0.00,,,0.00,Wunderground v.1.15,2013-03-24 01:23:00,
2013-03-23 18:28:00,69.1,35.5,30.03,South,191,6.0,6.0,29,0.00,,,0.00,Wunderground v.1.15,2013-03-24 01:28:00,
2013-03-23 18:33:00,68.9,37.0,30.03,SSW,198,3.0,6.0,31,0.00,,,0.00,Wunderground v.1.15,2013-03-24 01:33:00,
2013-03-23 18:39:00,68.7,36.8,30.03,SSW,192,4.0,6.0,31,0.00,,,0.00,Wunderground v.1.15,2013-03-24 01:39:00,
2013-03-23 18:44:00,68.3,35.6,30.03,South,188,5.0,7.0,30,0.00,,,0.00,Wunderground v.1.15,2013-03-24 01:44:00,
2013-03-23 18:49:00,67.9,36.9,30.03,SSW,194,2.0,7.0,32,0.00,,,0.00,Wunderground v.1.15,2013-03-24 01:49:00,
2013-03-23 18:54:00,67.6,36.7,30.03,SSW,193,5.0,5.0,32,0.00,,,0.00,Wunderground v.1.15,2013-03-24 01:54:00,
2013-03-23 18:59:00,67.3,38.0,30.03,SSW,213,3.0,7.0,34,0.00,,,0.00,Wunderground v.1.15,2013-03-24 01:59:00,
2013-03-23 19:04:00,67.0,38.4,30.04,SW,217,3.0,7.0,35,0.00,,,0.00,Wunderground v.1.15,2013-03-24 02:04:00,
2013-03-23 19:09:00,66.6,39.5,30.04,SW,228,2.0,9.0,37,0.00,,,0.00,Wunderground v.1.15,2013-03-24 02:09:00,
2013-03-23 19:14:00,66.3,41.2,30.04,SW,227,4.0,8.0,40,0.00,,,0.00,Wunderground v.1.15,2013-03-24 02:14:00,
2013-03-23 19:19:00,65.8,42.7,30.04,SW,224,5.0,9.0,43,0.00,,,0.00,Wunderground v.1.15,2013-03-24 02:19:00,
2013-03-23 19:24:00,65.4,43.5,30.04,SW,222,3.0,7.0,45,0.00,,,0.00,Wunderground v.1.15,2013-03-24 02:24:00,
2013-03-23 19:29:00,65.1,43.8,30.04,SW,224,7.0,8.0,46,0.00,,,0.00,Wunderground v.1.15,2013-03-24 02:29:00,
2013-03-23 19:34:00,64.6,43.3,30.04,SW,228,5.0,8.0,46,0.00,,,0.00,Wunderground v.1.15,2013-03-24 02:34:00,
2013-03-23 19:39:00,64.3,43.6,30.04,SW,232,3.0,8.0,47,0.00,,,0.00,Wunderground v.1.15,2013-03-24 02:39:00,
2013-03-23 19:44:00,64.0,43.4,30.04,SW,234,5.0,8.0,47,0.00,,,0.00,Wunderground v.1.15,2013-03-24 02:44:00,
2013-03-23 19:50:00,63.7,43.1,30.04,SW,234,3.0,3.0,47,0.00,,,0.00,Wunderground v.1.15,2013-03-24 02:50:00,
2013-03-23 19:55:00,63.5,42.9,30.04,WSW,237,2.0,8.0,47,0.00,,,0.00,Wunderground v.1.15,2013-03-24 02:55:00,
2013-03-23 20:00:00,63.3,43.3,30.04,WSW,237,4.0,4.0,48,0.00,,,0.00,Wunderground v.1.15,2013-03-24 03:00:00,
2013-03-23 20:05:00,63.1,43.1,30.04,WSW,237,2.0,4.0,48,0.00,,,0.00,Wunderground v.1.15,2013-03-24 03:05:00,
2013-03-23 20:10:00,62.9,43.4,30.04,SW,236,2.0,3.0,49,0.00,,,0.00,Wunderground v.1.15,2013-03-24 03:10:00,
2013-03-23 20:15:00,62.5,43.1,30.04,SW,236,0.0,5.0,49,0.00,,,0.00,Wunderground v.1.15,2013-03-24 03:15:00,
2013-03-23 20:20:00,62.2,42.8,30.04,SW,236,2.0,2.0,49,0.00,,,0.00,Wunderground v.1.15,2013-03-24 03:20:00,
2013-03-23 20:25:00,62.0,42.6,30.04,SW,236,1.0,4.0,49,0.00,,,0.00,Wunderground v.1.15,2013-03-24 03:25:00,
2013-03-23 20:30:00,61.6,42.8,30.04,SW,234,2.0,2.0,50,0.00,,,0.00,Wunderground v.1.15,2013-03-24 03:30:00,
2013-03-23 20:35:00,61.2,42.9,30.04,SW,234,2.0,5.0,51,0.00,,,0.00,Wunderground v.1.15,2013-03-24 03:35:00,
2013-03-23 20:40:00,60.9,42.6,30.04,SW,234,2.0,2.0,51,0.00,,,0.00,Wunderground v.1.15,2013-03-24 03:40:00,
2013-03-23 20:45:00,60.6,42.9,30.05,SW,234,3.0,3.0,52,0.00,,,0.00,Wunderground v.1.15,2013-03-24 03:45:00,
2013-03-23 20:50:00,60.2,43.0,30.05,SW,234,0.0,2.0,53,0.00,,,0.00,Wunderground v.1.15,2013-03-24 03:50:00,
2013-03-23 20:55:00,59.9,42.7,30.05,SW,234,0.0,2.0,53,0.00,,,0.00,Wunderground v.1.15,2013-03-24 03:55:00,
2013-03-23 21:00:00,59.6,42.4,30.05,SW,234,0.0,1.0,53,0.00,,,0.00,Wunderground v.1.15,2013-03-24 04:00:00,
2013-03-23 21:05:00,59.5,42.8,30.05,SW,234,0.0,1.0,54,0.00,,,0.00,Wunderground v.1.15,2013-03-24 04:05:00,
2013-03-23 21:10:00,59.3,42.6,30.05,SW,234,0.0,0.0,54,0.00,,,0.00,Wunderground v.1.15,2013-03-24 04:10:00,
2013-03-23 21:15:00,59.2,42.6,30.05,SW,234,0.0,0.0,54,0.00,,,0.00,Wunderground v.1.15,2013-03-24 04:15:00,
2013-03-23 21:20:00,59.0,42.4,30.05,SW,234,0.0,0.0,54,0.00,,,0.00,Wunderground v.1.15,2013-03-24 04:20:00,
2013-03-23 21:25:00,58.9,42.8,30.06,SW,234,0.0,0.0,55,0.00,,,0.00,Wunderground v.1.15,2013-03-24 04:25:00,
2013-03-23 21:30:00,58.7,42.6,30.06,SW,234,0.0,1.0,55,0.00,,,0.00,Wunderground v.1.15,2013-03-24 04:30:00,
2013-03-23 21:35:00,58.6,42.5,30.06,SW,234,0.0,1.0,55,0.00,,,0.00,Wunderground v.1.15,2013-03-24 04:35:00,
2013-03-23 21:40:00,58.4,42.3,30.06,SW,234,0.0,0.0,55,0.00,,,0.00,Wunderground v.1.15,2013-03-24 04:40:00,
2013-03-23 21:45:00,58.2,42.1,30.05,SW,234,0.0,0.0,55,0.00,,,0.00,Wunderground v.1.15,2013-03-24 04:45:00,
2013-03-23 21:50:00,58.0,41.9,30.05,SW,234,1.0,1.0,55,0.00,,,0.00,Wunderground v.1.15,2013-03-24 04:50:00,
2013-03-23 21:55:00,57.7,42.1,30.05,SW,234,0.0,2.0,56,0.00,,,0.00,Wunderground v.1.15,2013-03-24 04:55:00,
2013-03-23 22:00:00,57.5,41.9,30.05,SW,234,0.0,1.0,56,0.00,,,0.00,Wunderground v.1.15,2013-03-24 05:00:00,
2013-03-23 22:05:00,57.2,42.1,30.05,SW,234,1.0,1.0,57,0.00,,,0.00,Wunderground v.1.15,2013-03-24 05:05:00,
2013-03-23 22:10:00,56.9,42.3,30.06,SW,234,0.0,1.0,58,0.00,,,0.00,Wunderground v.1.15,2013-03-24 05:10:00,
2013-03-23 22:15:00,56.8,42.2,30.06,SW,234,0.0,1.0,58,0.00,,,0.00,Wunderground v.1.15,2013-03-24 05:15:00,
2013-03-23 22:20:00,56.6,42.0,30.06,SW,234,0.0,0.0,58,0.00,,,0.00,Wunderground v.1.15,2013-03-24 05:20:00,
2013-03-23 22:25:00,56.5,41.9,30.06,SW,234,0.0,1.0,58,0.00,,,0.00,Wunderground v.1.15,2013-03-24 05:25:00,
2013-03-23 22:30:00,56.4,41.8,30.06,SW,234,0.0,0.0,58,0.00,,,0.00,Wunderground v.1.15,2013-03-24 05:30:00,
2013-03-23 22:36:00,56.2,42.1,30.06,SW,234,0.0,0.0,59,0.00,,,0.00,Wunderground v.1.15,2013-03-24 05:36:00,
2013-03-23 22:41:00,56.1,42.0,30.06,SW,234,0.0,0.0,59,0.00,,,0.00,Wunderground v.1.15,2013-03-24 05:41:00,
2013-03-23 22:46:00,55.9,41.8,30.06,SW,234,0.0,0.0,59,0.00,,,0.00,Wunderground v.1.15,2013-03-24 05:46:00,
2013-03-23 22:51:00,55.8,42.1,30.06,SW,234,0.0,0.0,60,0.00,,,0.00,Wunderground v.1.15,2013-03-24 05:51:00,
2013-03-23 22:56:00,55.4,41.7,30.06,SW,234,1.0,3.0,60,0.00,,,0.00,Wunderground v.1.15,2013-03-24 05:56:00,
2013-03-23 23:01:00,55.1,41.9,30.06,SW,234,0.0,1.0,61,0.00,,,0.00,Wunderground v.1.15,2013-03-24 06:01:00,
2013-03-23 23:06:00,54.9,41.7,30.06,SW,234,1.0,2.0,61,0.00,,,0.00,Wunderground v.1.15,2013-03-24 06:06:00,
2013-03-23 23:11:00,54.7,41.5,30.06,SW,234,0.0,2.0,61,0.00,,,0.00,Wunderground v.1.15,2013-03-24 06:11:00,
2013-03-23 23:16:00,54.5,41.7,30.06,SW,234,0.0,2.0,62,0.00,,,0.00,Wunderground v.1.15,2013-03-24 06:16:00,
2013-03-23 23:21:00,54.4,41.6,30.06,SW,234,1.0,1.0,62,0.00,,,0.00,Wunderground v.1.15,2013-03-24 06:21:00,
2013-03-23 23:26:00,54.2,41.5,30.06,SW,234,0.0,2.0,62,0.00,,,0.00,Wunderground v.1.15,2013-03-24 06:26:00,
2013-03-23 23:31:00,54.0,41.7,30.06,SW,234,2.0,2.0,63,0.00,,,0.00,Wunderground v.1.15,2013-03-24 06:31:00,
2013-03-23 23:36:00,53.7,41.4,30.06,SW,234,2.0,2.0,63,0.00,,,0.00,Wunderground v.1.15,2013-03-24 06:36:00,
2013-03-23 23:41:00,53.6,41.3,30.06,SW,234,2.0,2.0,63,0.00,,,0.00,Wunderground v.1.15,2013-03-24 06:41:00,
2013-03-23 23:47:00,53.5,40.8,30.06,SW,234,1.0,4.0,62,0.00,,,0.00,Wunderground v.1.15,2013-03-24 06:47:00,
2013-03-23 23:52:00,53.3,40.6,30.06,SW,234,2.0,3.0,62,0.00,,,0.00,Wunderground v.1.15,2013-03-24 06:52:00,
2013-03-23 23:57:00,53.2,40.5,30.05,SW,234,3.0,4.0,62,0.00,,,0.00,Wunderground v.1.15,2013-03-24 06:57:00,